Wetterdaten: Freitag, 05.09.2014
Datum Zeit Temp. A. Feuchte A. Luftdruck Regen Wind Richtung Richtung Sonnenschein ET UV Solar Taupunkt Windchill Windben Empfang
05.09.2014 00:00 17,3 C 86 % 1014,0 hPa 0,0 l/m 9,0 km/h (2 Bft) NO 43 0 min 0,000 mm 0,0 UV-I 0 W/m 14,9 C 16,1 C 4,0 km/h (1 Bft) 0,00 %
05.09.2014 00:15 17,1 C 87 % 1013,8 hPa 0,0 l/m 6,5 km/h (2 Bft) O-NO 74 0 min 0,000 mm 0,0 UV-I 0 W/m 14,9 C 17,1 C 11,9 km/h (2 Bft) 0,00 %
05.09.2014 00:30 17,0 C 88 % 1014,0 hPa 0,0 l/m 9,7 km/h (2 Bft) N 355 0 min 0,000 mm 0,0 UV-I 0 W/m 15,0 C 15,4 C 7,9 km/h (2 Bft) 0,00 %
05.09.2014 00:45 17,0 C 88 % 1013,8 hPa 0,0 l/m 7,2 km/h (2 Bft) O-NO 65 0 min 0,000 mm 0,0 UV-I 0 W/m 15,0 C 16,6 C 15,8 km/h (3 Bft) 0,00 %
05.09.2014 01:00 17,0 C 88 % 1013,6 hPa 0,0 l/m 18,4 km/h (3 Bft) NO 37 0 min 0,000 mm 0,0 UV-I 0 W/m 15,0 C 12,7 C 11,9 km/h (2 Bft) 0,00 %
05.09.2014 01:15 17,1 C 88 % 1013,7 hPa 0,0 l/m 14,8 km/h (3 Bft) NO 51 0 min 0,000 mm 0,0 UV-I 0 W/m 15,1 C 13,8 C 24,1 km/h (4 Bft) 0,00 %
05.09.2014 01:30 17,0 C 88 % 1013,5 hPa 0,0 l/m 11,5 km/h (2 Bft) NO 40 0 min 0,000 mm 0,0 UV-I 0 W/m 15,0 C 14,8 C 15,8 km/h (3 Bft) 0,00 %
05.09.2014 01:45 16,9 C 88 % 1013,7 hPa 0,0 l/m 9,7 km/h (2 Bft) O-NO 74 0 min 0,000 mm 0,0 UV-I 0 W/m 14,9 C 15,3 C 15,8 km/h (3 Bft) 0,00 %
05.09.2014 02:00 16,7 C 89 % 1013,6 hPa 0,0 l/m 2,9 km/h (1 Bft) O-NO 67 0 min 0,000 mm 0,0 UV-I 0 W/m 14,9 C 16,7 C 15,8 km/h (3 Bft) 0,00 %
05.09.2014 02:15 16,6 C 89 % 1013,4 hPa 0,0 l/m 5,4 km/h (1 Bft) O-NO 73 0 min 0,000 mm 0,0 UV-I 0 W/m 14,8 C 16,6 C 4,0 km/h (1 Bft) 0,00 %
05.09.2014 02:30 16,4 C 89 % 1013,3 hPa 0,0 l/m 7,9 km/h (2 Bft) NO 36 0 min 0,000 mm 0,0 UV-I 0 W/m 14,6 C 15,6 C 7,9 km/h (2 Bft) 0,00 %
05.09.2014 02:45 16,4 C 90 % 1013,0 hPa 0,0 l/m 9,0 km/h (2 Bft) N-NO 32 0 min 0,000 mm 0,0 UV-I 0 W/m 14,8 C 15,1 C 11,9 km/h (2 Bft) 0,00 %
05.09.2014 03:00 16,4 C 89 % 1013,3 hPa 0,0 l/m 10,4 km/h (2 Bft) O-NO 58 0 min 0,000 mm 0,0 UV-I 0 W/m 14,6 C 14,5 C 11,9 km/h (2 Bft) 0,00 %
05.09.2014 03:15 16,4 C 90 % 1013,4 hPa 0,0 l/m 4,3 km/h (1 Bft) N-NO 32 0 min 0,000 mm 0,0 UV-I 0 W/m 14,8 C 16,4 C 15,8 km/h (3 Bft) 0,00 %
05.09.2014 03:30 16,4 C 89 % 1013,3 hPa 0,0 l/m 4,7 km/h (1 Bft) NO 49 0 min 0,000 mm 0,0 UV-I 0 W/m 14,6 C 16,4 C 7,9 km/h (2 Bft) 0,00 %
05.09.2014 03:45 16,4 C 89 % 1012,9 hPa 0,0 l/m 5,8 km/h (2 Bft) O 95 0 min 0,000 mm 0,0 UV-I 0 W/m 14,6 C 16,4 C 7,9 km/h (2 Bft) 0,00 %
05.09.2014 04:00 16,4 C 91 % 1013,0 hPa 0,0 l/m 2,9 km/h (1 Bft) O-NO 63 0 min 0,000 mm 0,0 UV-I 0 W/m 14,9 C 16,4 C 7,9 km/h (2 Bft) 0,00 %
05.09.2014 04:15 16,3 C 91 % 1013,0 hPa 0,0 l/m 2,2 km/h (1 Bft) O-NO 64 0 min 0,000 mm 0,0 UV-I 0 W/m 14,8 C 16,3 C 4,0 km/h (1 Bft) 0,00 %
05.09.2014 04:30 16,3 C 91 % 1013,2 hPa 0,0 l/m 2,9 km/h (1 Bft) O-NO 76 0 min 0,000 mm 0,0 UV-I 0 W/m 14,8 C 16,3 C 4,0 km/h (1 Bft) 0,00 %
05.09.2014 04:45 16,3 C 91 % 1013,1 hPa 0,0 l/m 11,9 km/h (2 Bft) O-NO 75 0 min 0,000 mm 0,0 UV-I 0 W/m 14,8 C 13,8 C 4,0 km/h (1 Bft) 0,00 %
05.09.2014 05:00 16,3 C 91 % 1012,8 hPa 0,0 l/m 4,7 km/h (1 Bft) NO 52 0 min 0,000 mm 0,0 UV-I 0 W/m 14,8 C 16,3 C 15,8 km/h (3 Bft) 0,00 %
05.09.2014 05:15 16,3 C 90 % 1012,6 hPa 0,0 l/m 14,4 km/h (3 Bft) O 99 0 min 0,000 mm 0,0 UV-I 0 W/m 14,7 C 13,0 C 7,9 km/h (2 Bft) 0,00 %
05.09.2014 05:30 16,3 C 90 % 1012,8 hPa 0,0 l/m 10,8 km/h (2 Bft) O-NO 62 0 min 0,000 mm 0,0 UV-I 0 W/m 14,7 C 14,2 C 19,8 km/h (3 Bft) 0,00 %
05.09.2014 05:45 16,2 C 90 % 1012,9 hPa 0,0 l/m 7,2 km/h (2 Bft) O-NO 70 0 min 0,000 mm 0,0 UV-I 0 W/m 14,6 C 15,8 C 15,8 km/h (3 Bft) 0,00 %
05.09.2014 06:00 16,2 C 90 % 1013,1 hPa 0,0 l/m 7,2 km/h (2 Bft) O-NO 68 0 min 0,000 mm 0,0 UV-I 0 W/m 14,6 C 15,8 C 11,9 km/h (2 Bft) 0,00 %
05.09.2014 06:15 16,2 C 90 % 1013,1 hPa 0,0 l/m 9,4 km/h (2 Bft) O 82 0 min 0,000 mm 0,0 UV-I 0 W/m 14,6 C 14,7 C 7,9 km/h (2 Bft) 0,00 %
05.09.2014 06:30 16,1 C 90 % 1013,0 hPa 0,0 l/m 6,5 km/h (2 Bft) NO 42 0 min 0,000 mm 0,0 UV-I 0 W/m 14,5 C 16,1 C 11,9 km/h (2 Bft) 0,00 %
05.09.2014 06:45 16,2 C 89 % 1012,9 hPa 0,0 l/m 4,0 km/h (1 Bft) NO 54 0 min 0,000 mm 0,0 UV-I 0 W/m 14,4 C 16,2 C 15,8 km/h (3 Bft) 0,00 %
05.09.2014 07:00 16,3 C 89 % 1013,0 hPa 0,0 l/m 7,9 km/h (2 Bft) NO 55 0 min 0,000 mm 0,0 UV-I 1 W/m 14,5 C 15,5 C 4,0 km/h (1 Bft) 0,00 %
05.09.2014 07:15 16,4 C 87 % 1012,9 hPa 0,0 l/m 12,2 km/h (2 Bft) NO 42 0 min 0,000 mm 1,0 UV-I 3 W/m 14,2 C 13,8 C 11,9 km/h (2 Bft) 0,00 %
05.09.2014 07:30 16,5 C 87 % 1012,9 hPa 0,0 l/m 11,9 km/h (2 Bft) O-NO 65 0 min 0,000 mm 1,0 UV-I 7 W/m 14,3 C 14,0 C 15,8 km/h (3 Bft) 0,00 %
05.09.2014 07:45 16,6 C 87 % 1012,8 hPa 0,0 l/m 11,5 km/h (2 Bft) NO 44 0 min 0,000 mm 1,0 UV-I 26 W/m 14,4 C 14,3 C 15,8 km/h (3 Bft) 0,00 %
05.09.2014 08:00 16,6 C 87 % 1012,9 hPa 0,0 l/m 8,3 km/h (2 Bft) O-NO 58 0 min 0,000 mm 1,0 UV-I 45 W/m 14,4 C 15,6 C 11,9 km/h (2 Bft) 0,00 %
05.09.2014 08:15 16,8 C 86 % 1012,8 hPa 0,0 l/m 4,0 km/h (1 Bft) O-NO 65 0 min 0,000 mm 1,0 UV-I 81 W/m 14,4 C 16,8 C 15,8 km/h (3 Bft) 0,00 %
05.09.2014 08:30 17,0 C 86 % 1012,8 hPa 0,0 l/m 5,4 km/h (1 Bft) O 84 0 min 0,000 mm 1,0 UV-I 86 W/m 14,6 C 17,0 C 7,9 km/h (2 Bft) 0,00 %
05.09.2014 08:45 17,2 C 85 % 1012,9 hPa 0,0 l/m 5,8 km/h (2 Bft) O-NO 70 0 min 0,000 mm 1,0 UV-I 98 W/m 14,7 C 17,2 C 7,9 km/h (2 Bft) 0,00 %
05.09.2014 09:00 17,3 C 84 % 1013,0 hPa 0,0 l/m 2,9 km/h (1 Bft) O 83 0 min 0,000 mm 1,0 UV-I 109 W/m 14,6 C 17,3 C 7,9 km/h (2 Bft) 0,00 %
05.09.2014 09:15 17,3 C 85 % 1012,9 hPa 0,0 l/m 1,8 km/h (1 Bft) N-NO 33 0 min 0,000 mm 1,0 UV-I 134 W/m 14,8 C 17,3 C 4,0 km/h (1 Bft) 0,00 %
05.09.2014 09:30 17,6 C 84 % 1013,1 hPa 0,0 l/m 10,8 km/h (2 Bft) O-NO 76 0 min 0,000 mm 1,0 UV-I 135 W/m 14,9 C 15,7 C 4,0 km/h (1 Bft) 0,00 %
05.09.2014 09:45 18,0 C 83 % 1012,6 hPa 0,0 l/m 7,2 km/h (2 Bft) O-NO 77 0 min 0,000 mm 2,0 UV-I 144 W/m 15,1 C 17,6 C 11,9 km/h (2 Bft) 0,00 %
05.09.2014 10:00 18,3 C 83 % 1012,4 hPa 0,0 l/m 7,9 km/h (2 Bft) NO 54 0 min 0,000 mm 2,0 UV-I 139 W/m 15,4 C 17,6 C 7,9 km/h (2 Bft) 0,00 %
05.09.2014 10:15 18,6 C 81 % 1012,5 hPa 0,0 l/m 9,4 km/h (2 Bft) NO 51 0 min 0,000 mm 2,0 UV-I 127 W/m 15,3 C 17,3 C 11,9 km/h (2 Bft) 0,00 %
05.09.2014 10:30 18,9 C 79 % 1012,1 hPa 0,0 l/m 9,0 km/h (2 Bft) NO 50 0 min 0,000 mm 2,0 UV-I 144 W/m 15,2 C 17,8 C 11,9 km/h (2 Bft) 0,00 %
05.09.2014 10:45 19,2 C 78 % 1012,0 hPa 0,0 l/m 6,5 km/h (2 Bft) NO 53 0 min 0,000 mm 3,0 UV-I 186 W/m 15,3 C 19,2 C 11,9 km/h (2 Bft) 0,00 %
05.09.2014 11:00 19,6 C 75 % 1011,7 hPa 0,0 l/m 5,4 km/h (1 Bft) O-NO 75 0 min 0,000 mm 3,0 UV-I 197 W/m 15,0 C 19,6 C 11,9 km/h (2 Bft) 0,00 %
05.09.2014 11:15 19,6 C 75 % 1012,0 hPa 0,0 l/m 14,0 km/h (3 Bft) NO 42 0 min 0,000 mm 4,0 UV-I 207 W/m 15,0 C 17,0 C 7,9 km/h (2 Bft) 0,00 %
05.09.2014 11:30 19,7 C 75 % 1012,2 hPa 0,0 l/m 8,3 km/h (2 Bft) O-NO 58 0 min 0,000 mm 4,0 UV-I 237 W/m 15,1 C 18,9 C 15,8 km/h (3 Bft) 0,00 %
05.09.2014 11:45 19,7 C 74 % 1012,2 hPa 0,0 l/m 1,4 km/h (1 Bft) O-NO 65 0 min 0,000 mm 3,0 UV-I 285 W/m 14,9 C 19,7 C 11,9 km/h (2 Bft) 0,00 %
05.09.2014 12:00 20,0 C 74 % 1012,1 hPa 0,0 l/m 0,0 km/h (0 Bft) O 94 0 min 0,000 mm 3,0 UV-I 341 W/m 15,2 C 20,0 C 4,0 km/h (1 Bft) 0,00 %
05.09.2014 12:15 20,0 C 73 % 1012,2 hPa 0,0 l/m 0,7 km/h (0 Bft) O 79 0 min 0,000 mm 3,0 UV-I 339 W/m 15,0 C 20,0 C 0,0 km/h (0 Bft) 0,00 %
05.09.2014 12:30 20,0 C 73 % 1012,0 hPa 0,0 l/m 3,2 km/h (1 Bft) O-NO 61 0 min 0,000 mm 3,0 UV-I 318 W/m 15,0 C 20,0 C 4,0 km/h (1 Bft) 0,00 %
05.09.2014 12:45 20,2 C 74 % 1012,0 hPa 0,0 l/m 4,3 km/h (1 Bft) NO 49 0 min 0,000 mm 2,0 UV-I 322 W/m 15,4 C 20,2 C 4,0 km/h (1 Bft) 0,00 %
05.09.2014 13:00 20,5 C 72 % 1011,7 hPa 0,0 l/m 0,7 km/h (0 Bft) O-SO 110 0 min 0,000 mm 2,0 UV-I 291 W/m 15,3 C 20,5 C 7,9 km/h (2 Bft) 0,00 %
05.09.2014 13:15 20,6 C 71 % 1011,6 hPa 0,0 l/m 0,7 km/h (0 Bft) O-NO 58 0 min 0,000 mm 2,0 UV-I 281 W/m 15,2 C 20,6 C 4,0 km/h (1 Bft) 0,00 %
05.09.2014 13:30 21,3 C 68 % 1011,4 hPa 0,0 l/m 1,8 km/h (1 Bft) O-NO 72 0 min 0,000 mm 3,0 UV-I 258 W/m 15,1 C 21,3 C 4,0 km/h (1 Bft) 0,00 %
05.09.2014 13:45 22,3 C 65 % 1011,1 hPa 0,0 l/m 0,0 km/h (0 Bft) NO 36 0 min 0,000 mm 3,0 UV-I 241 W/m 15,4 C 22,3 C 4,0 km/h (1 Bft) 0,00 %
05.09.2014 14:00 21,8 C 69 % 1011,0 hPa 0,0 l/m 0,4 km/h (0 Bft) O 90 0 min 0,000 mm 3,0 UV-I 241 W/m 15,9 C 21,8 C 0,0 km/h (0 Bft) 0,00 %
05.09.2014 14:15 21,7 C 69 % 1010,8 hPa 0,0 l/m 0,0 km/h (0 Bft) NO 50 0 min 0,000 mm 2,0 UV-I 242 W/m 15,8 C 21,7 C 4,0 km/h (1 Bft) 0,00 %
05.09.2014 14:30 21,8 C 72 % 1010,6 hPa 0,0 l/m 0,0 km/h (0 Bft) NO 42 0 min 0,000 mm 2,0 UV-I 271 W/m 16,5 C 21,8 C 0,0 km/h (0 Bft) 0,00 %
05.09.2014 14:45 22,8 C 69 % 1010,3 hPa 0,0 l/m 0,0 km/h (0 Bft) O-NO 60 0 min 0,000 mm 2,0 UV-I 273 W/m 16,8 C 22,8 C 0,0 km/h (0 Bft) 0,00 %
05.09.2014 15:00 22,6 C 71 % 1010,3 hPa 0,0 l/m 0,0 km/h (0 Bft) NO 44 0 min 0,000 mm 2,0 UV-I 265 W/m 17,1 C 22,6 C 0,0 km/h (0 Bft) 0,00 %
05.09.2014 15:15 22,8 C 71 % 1010,4 hPa 0,0 l/m 1,4 km/h (1 Bft) W-NW 292 0 min 0,000 mm 2,0 UV-I 254 W/m 17,3 C 22,8 C 0,0 km/h (0 Bft) 0,00 %
05.09.2014 15:30 22,2 C 70 % 1010,3 hPa 0,0 l/m 0,0 km/h (0 Bft) N-NW 344 0 min 0,000 mm 2,0 UV-I 249 W/m 16,5 C 22,2 C 4,0 km/h (1 Bft) 0,00 %
05.09.2014 15:45 21,9 C 71 % 1010,3 hPa 0,0 l/m 0,0 km/h (0 Bft) NW 321 0 min 0,000 mm 1,0 UV-I 224 W/m 16,4 C 21,9 C 0,0 km/h (0 Bft) 0,00 %
05.09.2014 16:00 21,6 C 72 % 1010,4 hPa 0,0 l/m 0,4 km/h (0 Bft) NO 56 0 min 0,000 mm 1,0 UV-I 206 W/m 16,3 C 21,6 C 0,0 km/h (0 Bft) 0,00 %
05.09.2014 16:15 22,0 C 71 % 1010,6 hPa 0,0 l/m 0,0 km/h (0 Bft) NO 34 0 min 0,000 mm 1,0 UV-I 186 W/m 16,5 C 22,0 C 4,0 km/h (1 Bft) 0,00 %
05.09.2014 16:30 22,1 C 71 % 1010,3 hPa 0,0 l/m 0,0 km/h (0 Bft) NO 40 0 min 0,000 mm 1,0 UV-I 157 W/m 16,6 C 22,1 C 0,0 km/h (0 Bft) 0,00 %
05.09.2014 16:45 22,0 C 71 % 1010,3 hPa 0,0 l/m 0,0 km/h (0 Bft) NO 47 0 min 0,000 mm 1,0 UV-I 146 W/m 16,5 C 22,0 C 0,0 km/h (0 Bft) 0,00 %
05.09.2014 17:00 21,8 C 73 % 1010,4 hPa 0,0 l/m 0,0 km/h (0 Bft) O-NO 67 0 min 0,000 mm 1,0 UV-I 141 W/m 16,7 C 21,8 C 0,0 km/h (0 Bft) 0,00 %
05.09.2014 17:15 21,1 C 76 % 1010,3 hPa 0,0 l/m 0,0 km/h (0 Bft) NO 40 0 min 0,000 mm 1,0 UV-I 142 W/m 16,7 C 21,1 C 0,0 km/h (0 Bft) 0,00 %
05.09.2014 17:30 20,6 C 77 % 1010,5 hPa 0,0 l/m 0,0 km/h (0 Bft) O 93 0 min 0,000 mm 1,0 UV-I 136 W/m 16,4 C 20,6 C 0,0 km/h (0 Bft) 0,00 %
05.09.2014 17:45 20,0 C 80 % 1010,6 hPa 0,0 l/m 0,0 km/h (0 Bft) N 353 0 min 0,000 mm 1,0 UV-I 134 W/m 16,4 C 20,0 C 0,0 km/h (0 Bft) 0,00 %
05.09.2014 18:00 19,6 C 83 % 1010,8 hPa 0,0 l/m 0,0 km/h (0 Bft) O-NO 70 0 min 0,000 mm 1,0 UV-I 112 W/m 16,6 C 19,6 C 0,0 km/h (0 Bft) 0,00 %
05.09.2014 18:15 19,2 C 84 % 1011,1 hPa 0,0 l/m 0,0 km/h (0 Bft) W-SW 254 0 min 0,000 mm 0,0 UV-I 93 W/m 16,4 C 19,2 C 0,0 km/h (0 Bft) 0,00 %
05.09.2014 18:30 18,8 C 86 % 1011,1 hPa 0,0 l/m 0,0 km/h (0 Bft) NW 304 0 min 0,000 mm 0,0 UV-I 76 W/m 16,4 C 18,8 C 0,0 km/h (0 Bft) 0,00 %
05.09.2014 18:45 18,3 C 89 % 1011,2 hPa 0,0 l/m 0,0 km/h (0 Bft) W-NW 303 0 min 0,000 mm 0,0 UV-I 66 W/m 16,5 C 18,3 C 0,0 km/h (0 Bft) 0,00 %
05.09.2014 19:00 17,9 C 91 % 1011,4 hPa 0,0 l/m 0,0 km/h (0 Bft) SO 130 0 min 0,000 mm 0,0 UV-I 32 W/m 16,4 C 17,9 C 0,0 km/h (0 Bft) 0,00 %
05.09.2014 19:15 17,9 C 90 % 1011,5 hPa 0,0 l/m 0,0 km/h (0 Bft) O-SO 123 0 min 0,000 mm 0,0 UV-I 9 W/m 16,2 C 17,9 C 0,0 km/h (0 Bft) 0,00 %
05.09.2014 19:30 17,1 C 91 % 1011,5 hPa 0,0 l/m 0,0 km/h (0 Bft) O-SO 114 0 min 0,000 mm 0,0 UV-I 1 W/m 15,6 C 17,1 C 0,0 km/h (0 Bft) 0,00 %
05.09.2014 19:45 16,7 C 92 % 1011,6 hPa 0,0 l/m 2,2 km/h (1 Bft) S 173 0 min 0,000 mm 0,0 UV-I 0 W/m 15,4 C 16,7 C 0,0 km/h (0 Bft) 0,00 %
05.09.2014 20:00 16,8 C 93 % 1011,6 hPa 0,0 l/m 0,7 km/h (0 Bft) S-SO 167 0 min 0,000 mm 0,0 UV-I 0 W/m 15,7 C 16,8 C 4,0 km/h (1 Bft) 0,00 %
05.09.2014 20:15 16,9 C 92 % 1011,7 hPa 0,0 l/m 0,0 km/h (0 Bft) SO 140 0 min 0,000 mm 0,0 UV-I 0 W/m 15,6 C 16,9 C 4,0 km/h (1 Bft) 0,00 %
05.09.2014 20:30 16,3 C 94 % 1011,8 hPa 0,0 l/m 0,0 km/h (0 Bft) S-SO 156 0 min 0,000 mm 0,0 UV-I 0 W/m 15,3 C 16,3 C 0,0 km/h (0 Bft) 0,00 %
05.09.2014 20:45 16,7 C 93 % 1011,7 hPa 0,0 l/m 0,0 km/h (0 Bft) S 178 0 min 0,000 mm 0,0 UV-I 0 W/m 15,6 C 16,7 C 0,0 km/h (0 Bft) 0,00 %
05.09.2014 21:00 16,5 C 93 % 1011,6 hPa 0,0 l/m 0,0 km/h (0 Bft) S-SW 198 0 min 0,000 mm 0,0 UV-I 0 W/m 15,4 C 16,5 C 0,0 km/h (0 Bft) 0,00 %
05.09.2014 21:15 16,6 C 94 % 1011,7 hPa 0,0 l/m 0,0 km/h (0 Bft) SO 137 0 min 0,000 mm 0,0 UV-I 0 W/m 15,6 C 16,6 C 0,0 km/h (0 Bft) 0,00 %
05.09.2014 21:30 16,3 C 94 % 1011,7 hPa 0,0 l/m 0,0 km/h (0 Bft) SO 128 0 min 0,000 mm 0,0 UV-I 0 W/m 15,3 C 16,3 C 0,0 km/h (0 Bft) 0,00 %
05.09.2014 21:45 16,1 C 95 % 1011,8 hPa 0,0 l/m 0,0 km/h (0 Bft) S 173 0 min 0,000 mm 0,0 UV-I 0 W/m 15,3 C 16,1 C 0,0 km/h (0 Bft) 0,00 %
05.09.2014 22:00 16,2 C 94 % 1011,8 hPa 0,0 l/m 1,4 km/h (1 Bft) S 175 0 min 0,000 mm 0,0 UV-I 0 W/m 15,2 C 16,2 C 0,0 km/h (0 Bft) 0,00 %
05.09.2014 22:15 16,2 C 95 % 1011,9 hPa 0,0 l/m 0,7 km/h (0 Bft) S 183 0 min 0,000 mm 0,0 UV-I 0 W/m 15,4 C 16,2 C 4,0 km/h (1 Bft) 0,00 %
05.09.2014 22:30 16,1 C 95 % 1011,9 hPa 0,0 l/m 0,0 km/h (0 Bft) S 169 0 min 0,000 mm 0,0 UV-I 0 W/m 15,3 C 16,1 C 4,0 km/h (1 Bft) 0,00 %
05.09.2014 22:45 16,0 C 95 % 1012,0 hPa 0,0 l/m 0,0 km/h (0 Bft) S 185 0 min 0,000 mm 0,0 UV-I 0 W/m 15,2 C 16,0 C 0,0 km/h (0 Bft) 0,00 %
05.09.2014 23:00 16,1 C 95 % 1011,9 hPa 0,0 l/m 0,0 km/h (0 Bft) S 176 0 min 0,000 mm 0,0 UV-I 0 W/m 15,3 C 16,1 C 0,0 km/h (0 Bft) 0,00 %
05.09.2014 23:15 16,0 C 95 % 1012,0 hPa 0,0 l/m 0,0 km/h (0 Bft) SO 130 0 min 0,000 mm 0,0 UV-I 0 W/m 15,2 C 16,0 C 0,0 km/h (0 Bft) 0,00 %
05.09.2014 23:30 16,0 C 95 % 1012,0 hPa 0,0 l/m 0,0 km/h (0 Bft) S-SO 150 0 min 0,000 mm 0,0 UV-I 0 W/m 15,2 C 16,0 C 0,0 km/h (0 Bft) 0,00 %
05.09.2014 23:45 16,0 C 95 % 1012,0 hPa 0,0 l/m 0,0 km/h (0 Bft) O-NO 72 0 min 0,000 mm 0,0 UV-I 0 W/m 15,2 C 16,0 C 0,0 km/h (0 Bft) 0,00 %
_ Min-Zeit 22:45 13:45 14:45 - 12:00 - - - - - - 07:15 01:00 12:15 00:00
Minimum _ 16,0 C 65 % 1010,3 hPa - 0,0 km/h (0 Bft) - - - - - - 14,2 C 12,7 C 0,0 km/h (0 Bft) 0,00 %
_ Max-Zeit 14:45 21:45 00:00 00:00 01:00 - - 00:00 00:00 11:15 12:00 15:15 14:45 01:15 00:00
Maximum _ 22,8 C 95 % 1014,0 hPa 0,0 l/m 18,4 km/h
NO (3 Bft)
- - 0 min 0,000 mm 4,0 UV-I 341 W/m 17,3 C 22,8 C 24,1 km/h
NO (4 Bft)
0,00 %
Durchschnitt _ 18,1 C 84 % 1012,1 hPa #0,0 l/m 4,0 km/h (1 Bft) O-NO - #0 min. #0,000 mm 1,8 UV-I 165 W/m 15,3 C 17,7 C 6,1 km/h (2 Bft) 0,00 %